| time (UTC) | temp F | wind direction | speed MPH | gust MPH | rain 1hr in | rain 24hr in | rain mn in | humidity % | barometer mb |
| 20260508054528 | 88 | 281 | 3.0 | 8.0 | 0.56 | 9.96 | 0.00 | 71 | 1011.8 |
| 20260508054410 | 88 | 345 | 4.0 | 8.0 | 0.54 | 9.95 | 0.00 | 71 | 1011.8 |
| 20260508054029 | 87 | 322 | 3.0 | 13.0 | 0.53 | 9.92 | 0.00 | 72 | 1011.8 |
| 20260508053859 | 86 | 334 | 4.0 | 13.0 | 0.53 | 9.89 | 0.00 | 72 | 1011.8 |
| 20260508053528 | 86 | 59 | 2.0 | 12.0 | 0.56 | 9.87 | 0.00 | 72 | 1011.8 |
| 20260508053349 | 86 | 337 | 3.0 | 12.0 | 0.53 | 9.85 | 0.00 | 72 | 1011.9 |
| 20260508053029 | 86 | 228 | 2.0 | 10.0 | 0.49 | 9.81 | 0.00 | 73 | 1012.0 |
| 20260508052839 | 86 | 95 | 5.0 | 10.0 | 0.49 | 9.81 | 0.00 | 72 | 1012.1 |
| 20260508052329 | 86 | 224 | 4.0 | 10.0 | 0.53 | 9.82 | 0.00 | 73 | 1012.1 |
| 20260508052028 | 86 | 213 | 4.0 | 10.0 | 0.50 | 9.85 | 0.00 | 73 | 1012.1 |
| 20260508051820 | 86 | 268 | 4.0 | 9.0 | 0.53 | 9.85 | 0.00 | 72 | 1012.1 |
| 20260508051528 | 86 | 217 | 6.0 | 11.0 | 0.56 | 9.83 | 0.00 | 72 | 1012.1 |
| 20260508051309 | 86 | 272 | 7.0 | 11.0 | 0.56 | 9.82 | 0.00 | 72 | 1012.1 |
| 20260508051028 | 86 | 243 | 7.0 | 11.0 | 0.56 | 9.79 | 0.00 | 71 | 1012.1 |
| 20260508050800 | 86 | 276 | 6.0 | 9.0 | 0.57 | 9.79 | 0.00 | 73 | 1012.2 |
| 20260508050528 | 85 | 229 | 5.0 | 7.0 | 0.61 | 9.79 | 0.00 | 74 | 1012.2 |
| 20260508050249 | 84 | 269 | 3.0 | 11.0 | 0.66 | 9.80 | 0.00 | 75 | 1012.2 |
| 20260508050028 | 84 | 259 | 5.0 | 11.0 | 0.70 | 9.80 | 0.00 | 75 | 1012.3 |
| 20260508045740 | 83 | 203 | 4.0 | 11.0 | 0.68 | 9.76 | 0.00 | 75 | 1012.2 |
| 20260508045527 | 83 | 229 | 7.0 | 11.0 | 0.68 | 9.74 | 0.00 | 75 | 1012.2 |
| 20260508045229 | 83 | 227 | 5.0 | 12.0 | 0.72 | 9.72 | 0.00 | 75 | 1012.3 |
| 20260508045028 | 83 | 225 | 5.0 | 12.0 | 0.73 | 9.72 | 0.00 | 75 | 1012.3 |
| 20260508044527 | 83 | 212 | 7.0 | 13.0 | 0.76 | 9.66 | 0.00 | 75 | 1012.4 |
| 20260508044209 | 83 | 243 | 8.0 | 13.0 | 0.81 | 9.66 | 0.00 | 75 | 1012.4 |
| 20260508044028 | 83 | 212 | 8.0 | 13.0 | 0.80 | 9.64 | 0.00 | 75 | 1012.4 |
| 20260508043700 | 84 | 210 | 7.0 | 12.0 | 0.77 | 9.63 | 0.00 | 74 | 1012.5 |
| 20260508043527 | 84 | 228 | 7.0 | 12.0 | 0.75 | 9.60 | 0.00 | 74 | 1012.6 |
| 20260508043149 | 85 | 204 | 7.0 | 10.0 | 0.79 | 9.59 | 0.00 | 73 | 1012.6 |
| 20260508043028 | 85 | 254 | 6.0 | 10.0 | 0.81 | 9.59 | 0.00 | 73 | 1012.6 |
| 20260508042639 | 84 | 271 | 4.0 | 8.0 | 0.83 | 9.56 | 0.00 | 74 | 1012.7 |
| 20260508042528 | 84 | 247 | 5.0 | 9.0 | 0.88 | 9.55 | 0.00 | 74 | 1012.7 |
| 20260508042128 | 84 | 236 | 5.0 | 10.0 | 0.94 | 9.54 | 0.00 | 74 | 1012.7 |
| 20260508042027 | 84 | 225 | 5.0 | 13.0 | 0.95 | 9.54 | 0.00 | 75 | 1012.7 |
| 20260508041619 | 83 | 198 | 8.0 | 13.0 | 0.99 | 9.49 | 0.00 | 75 | 1012.7 |
| 20260508041528 | 83 | 237 | 8.0 | 13.0 | 0.96 | 9.47 | 0.00 | 74 | 1012.7 |
| 20260508041108 | 83 | 223 | 4.0 | 12.0 | 1.02 | 9.43 | 0.00 | 76 | 1012.7 |
| 20260508041027 | 83 | 264 | 5.0 | 12.0 | 1.02 | 9.43 | 0.00 | 76 | 1012.7 |
| 20260508040559 | 83 | 252 | 8.0 | 14.0 | 1.02 | 9.38 | 0.00 | 76 | 1012.7 |
| 20260508040527 | 83 | 250 | 6.0 | 14.0 | 1.02 | 9.38 | 0.00 | 76 | 1012.7 |
| 20260508040049 | 83 | 236 | 7.0 | 15.0 | 0.95 | 9.28 | 0.00 | 76 | 1012.8 |
| 20260508040028 | 83 | 285 | 8.0 | 15.0 | 0.95 | 9.28 | 0.00 | 76 | 1012.7 |
| 20260508035527 | 83 | 221 | 6.0 | 13.0 | 1.03 | 9.24 | 0.00 | 76 | 1012.8 |
| 20260508035030 | 83 | 244 | 6.0 | 14.0 | 1.03 | 9.17 | 0.00 | 76 | 1012.8 |
| 20260508035028 | 83 | 242 | 6.0 | 14.0 | 1.03 | 9.17 | 0.00 | 76 | 1012.8 |
| 20260508034528 | 83 | 238 | 6.0 | 10.0 | 1.02 | 9.10 | 0.00 | 76 | 1012.8 |
| 20260508034519 | 83 | 259 | 5.0 | 10.0 | 1.02 | 9.10 | 0.00 | 76 | 1012.9 |
| 20260508034027 | 83 | 232 | 7.0 | 11.0 | 1.05 | 9.03 | 0.00 | 75 | 1012.9 |
| 20260508034009 | 83 | 238 | 7.0 | 11.0 | 1.03 | 9.02 | 0.00 | 75 | 1013.0 |
| 20260508033527 | 83 | 313 | 4.0 | 9.0 | 1.05 | 8.99 | 0.00 | 76 | 1013.0 |
| 20260508033457 | 83 | 253 | 4.0 | 9.0 | 1.07 | 8.98 | 0.00 | 76 | 1013.0 |
| 20260508033027 | 83 | 288 | 4.0 | 7.0 | 1.05 | 8.91 | 0.00 | 77 | 1013.1 |
| 20260508032949 | 83 | 266 | 3.0 | 7.0 | 1.06 | 8.90 | 0.00 | 77 | 1013.1 |
| 20260508032528 | 82 | 3 | 3.0 | 6.0 | 1.02 | 8.81 | 0.00 | 77 | 1013.1 |
| 20260508032439 | 82 | 29 | 3.0 | 6.0 | 1.00 | 8.77 | 0.00 | 77 | 1013.1 |
| 20260508032027 | 82 | 257 | 4.0 | 11.0 | 0.99 | 8.71 | 0.00 | 78 | 1013.2 |
| 20260508031928 | 82 | 278 | 5.0 | 11.0 | 0.95 | 8.68 | 0.00 | 77 | 1013.2 |
| 20260508031527 | 82 | 248 | 8.0 | 10.0 | 0.99 | 8.64 | 0.00 | 77 | 1013.2 |
| 20260508031419 | 82 | 234 | 6.0 | 10.0 | 1.05 | 8.61 | 0.00 | 77 | 1013.2 |
| 20260508030908 | 82 | 280 | 3.0 | 10.0 | 1.06 | 8.49 | 0.00 | 78 | 1013.3 |
| 20260508030527 | 82 | 266 | 6.0 | 8.0 | 1.06 | 8.46 | 0.00 | 78 | 1013.3 |
| 20260508030359 | 82 | 211 | 5.0 | 8.0 | 1.07 | 8.45 | 0.00 | 78 | 1013.3 |
| 20260508030027 | 82 | 284 | 1.0 | 9.0 | 1.08 | 8.46 | 0.00 | 78 | 1013.4 |
| 20260508025848 | 82 | 245 | 4.0 | 11.0 | 1.07 | 8.44 | 0.00 | 78 | 1013.4 |
| 20260508025527 | 82 | 8 | 2.0 | 11.0 | 1.05 | 8.35 | 0.00 | 78 | 1013.4 |
| 20260508025338 | 82 | 235 | 5.0 | 14.0 | 1.02 | 8.30 | 0.00 | 78 | 1013.4 |
| 20260508025027 | 82 | 198 | 7.0 | 14.0 | 1.06 | 8.26 | 0.00 | 77 | 1013.5 |
| 20260508024828 | 82 | 226 | 7.0 | 12.0 | 1.06 | 8.22 | 0.00 | 77 | 1013.4 |
| 20260508024527 | 82 | 241 | 6.0 | 11.0 | 1.08 | 8.19 | 0.00 | 77 | 1013.5 |
| 20260508024318 | 82 | 200 | 6.0 | 12.0 | 1.09 | 8.17 | 0.00 | 77 | 1013.5 |
| 20260508024026 | 82 | 221 | 5.0 | 12.0 | 1.05 | 8.11 | 0.00 | 76 | 1013.6 |
| 20260508023527 | 83 | 231 | 3.0 | 11.0 | 1.15 | 8.06 | 0.00 | 77 | 1013.7 |
| 20260508023258 | 82 | 248 | 7.0 | 11.0 | 1.15 | 7.99 | 0.00 | 77 | 1013.6 |
| 20260508023027 | 82 | 245 | 7.0 | 11.0 | 1.20 | 7.99 | 0.00 | 77 | 1013.7 |
| 20260508022748 | 82 | 218 | 6.0 | 10.0 | 1.16 | 7.94 | 0.00 | 77 | 1013.7 |
| 20260508022527 | 82 | 245 | 3.0 | 9.0 | 1.18 | 7.91 | 0.00 | 78 | 1013.8 |
| 20260508022238 | 81 | 220 | 7.0 | 12.0 | 1.18 | 7.88 | 0.00 | 78 | 1013.7 |
| 20260508022027 | 81 | 222 | 9.0 | 12.0 | 1.15 | 7.85 | 0.00 | 78 | 1013.7 |
| 20260508021728 | 81 | 213 | 5.0 | 10.0 | 1.11 | 7.79 | 0.00 | 77 | 1013.8 |
| 20260508021526 | 81 | 134 | 4.0 | 8.0 | 1.13 | 7.79 | 0.00 | 77 | 1013.9 |
| 20260508021218 | 81 | 113 | 2.0 | 13.0 | 0.99 | 7.61 | 0.00 | 78 | 1013.9 |
| 20260508021027 | 81 | 182 | 3.0 | 13.0 | 0.99 | 7.61 | 0.00 | 77 | 1013.9 |
| 20260508020708 | 82 | 191 | 6.0 | 11.0 | 1.00 | 7.55 | 0.00 | 77 | 1013.9 |
| 20260508020526 | 82 | 198 | 3.0 | 9.0 | 1.01 | 7.54 | 0.00 | 77 | 1013.9 |
| 20260508020158 | 82 | 260 | 5.0 | 8.0 | 1.02 | 7.52 | 0.00 | 78 | 1013.9 |
| 20260508020026 | 81 | 330 | 2.0 | 6.0 | 1.01 | 7.47 | 0.00 | 78 | 1013.9 |
| 20260508015648 | 81 | 178 | 3.0 | 7.0 | 1.01 | 7.39 | 0.00 | 79 | 1013.9 |
| 20260508015527 | 81 | 221 | 3.0 | 7.0 | 1.01 | 7.39 | 0.00 | 79 | 1013.9 |
| 20260508015137 | 81 | 197 | 4.0 | 8.0 | 0.94 | 7.32 | 0.00 | 78 | 1014.0 |
| 20260508015026 | 81 | 168 | 4.0 | 8.0 | 0.92 | 7.28 | 0.00 | 78 | 1014.1 |
| 20260508014628 | 81 | 258 | 4.0 | 8.0 | 0.88 | 7.21 | 0.00 | 78 | 1014.0 |
| 20260508014527 | 81 | 207 | 4.0 | 7.0 | 0.89 | 7.20 | 0.00 | 78 | 1014.0 |
| 20260508014117 | 81 | 199 | 4.0 | 8.0 | 0.87 | 7.16 | 0.00 | 78 | 1014.0 |
| 20260508014026 | 81 | 212 | 4.0 | 8.0 | 0.88 | 7.16 | 0.00 | 78 | 1014.0 |
| 20260508013608 | 81 | 201 | 3.0 | 6.0 | 0.74 | 7.01 | 0.00 | 78 | 1014.0 |
| 20260508013526 | 81 | 214 | 3.0 | 7.0 | 0.72 | 6.99 | 0.00 | 78 | 1014.0 |
| 20260508013026 | 80 | 219 | 4.0 | 7.0 | 0.62 | 6.92 | 0.00 | 78 | 1014.0 |
| 20260508012549 | 80 | 201 | 5.0 | 8.0 | 0.59 | 6.86 | 0.00 | 79 | 1013.9 |
| 20260508012037 | 80 | 203 | 4.0 | 8.0 | 0.56 | 6.83 | 0.00 | 79 | 1013.8 |
| 20260508012026 | 80 | 227 | 5.0 | 8.0 | 0.55 | 6.82 | 0.00 | 79 | 1013.8 |
| 20260508011529 | 80 | 213 | 4.0 | 8.0 | 0.50 | 6.77 | 0.00 | 79 | 1013.8 |
| 20260508011526 | 80 | 212 | 4.0 | 8.0 | 0.50 | 6.77 | 0.00 | 79 | 1013.8 |
| 20260508011026 | 80 | 192 | 4.0 | 6.0 | 0.49 | 6.74 | 0.00 | 78 | 1013.7 |
| 20260508011017 | 80 | 230 | 4.0 | 6.0 | 0.49 | 6.74 | 0.00 | 78 | 1013.7 |
| 20260508010526 | 80 | 184 | 3.0 | 6.0 | 0.42 | 6.66 | 0.00 | 78 | 1013.7 |
| 20260508010507 | 80 | 199 | 4.0 | 6.0 | 0.42 | 6.66 | 0.00 | 78 | 1013.7 |
| 20260508010026 | 80 | 180 | 3.0 | 5.0 | 0.36 | 6.57 | 0.00 | 78 | 1013.6 |
| 20260508005526 | 80 | 196 | 3.0 | 5.0 | 0.31 | 6.51 | 0.00 | 78 | 1013.7 |
| 20260508005026 | 80 | 193 | 3.0 | 6.0 | 0.31 | 6.49 | 0.00 | 78 | 1013.6 |
| 20260508004525 | 80 | 199 | 3.0 | 6.0 | 0.28 | 6.42 | 0.00 | 77 | 1013.6 |
| 20260508004026 | 81 | 200 | 4.0 | 6.0 | 0.23 | 6.37 | 0.00 | 77 | 1013.7 |
| 20260508003526 | 80 | 227 | 4.0 | 7.0 | 0.22 | 6.37 | 0.00 | 77 | 1013.7 |
| 20260508003027 | 80 | 207 | 4.0 | 7.0 | 0.22 | 6.36 | 0.00 | 78 | 1013.7 |
| 20260508002526 | 80 | 229 | 2.0 | 4.0 | 0.20 | 6.34 | 0.00 | 78 | 1013.6 |
| 20260508002025 | 80 | 200 | 3.0 | 4.0 | 0.18 | 6.33 | 0.00 | 79 | 1013.6 |
| 20260508001526 | 80 | 247 | 2.0 | 5.0 | 0.17 | 6.31 | 0.00 | 80 | 1013.5 |
| 20260508001025 | 80 | 235 | 2.0 | 5.0 | 0.18 | 6.30 | 0.00 | 80 | 1013.5 |
| 20260508000526 | 79 | 184 | 3.0 | 5.0 | 0.16 | 6.28 | 0.00 | 81 | 1013.5 |
| 20260508000026 | 79 | 234 | 3.0 | 5.0 | 0.15 | 6.25 | 0.00 | 81 | 1013.4 |
| 20260507235525 | 79 | 205 | 2.0 | 4.0 | 0.16 | 6.23 | 0.00 | 82 | 1013.5 |
| 20260507235026 | 79 | 213 | 2.0 | 5.0 | 0.14 | 6.22 | 0.00 | 82 | 1013.4 |
| 20260507234525 | 79 | 190 | 4.0 | 5.0 | 0.10 | 6.18 | 0.00 | 82 | 1013.4 |
| 20260507234025 | 78 | 190 | 2.0 | 4.0 | 0.09 | 6.17 | 0.00 | 82 | 1013.2 |
| 20260507233717 | 78 | 204 | 2.0 | 4.0 | 0.09 | 6.17 | 0.00 | 83 | 1013.2 |
| 20260507233526 | 78 | 195 | 2.0 | 4.0 | 0.09 | 6.17 | 0.00 | 83 | 1013.1 |
| 20260507233206 | 78 | 196 | 1.0 | 3.0 | 0.08 | 6.16 | 0.00 | 83 | 1013.2 |
| 20260507233025 | 78 | 187 | 2.0 | 3.0 | 0.08 | 6.16 | 0.00 | 83 | 1013.1 |
| 20260507232526 | 78 | 170 | 2.0 | 3.0 | 0.08 | 6.16 | 0.00 | 84 | 1013.1 |
| 20260507232146 | 77 | 164 | 2.0 | 5.0 | 0.08 | 6.16 | 0.00 | 84 | 1013.0 |
| 20260507232025 | 77 | 180 | 3.0 | 5.0 | 0.08 | 6.16 | 0.00 | 85 | 1013.0 |
| 20260507231525 | 77 | 186 | 2.0 | 4.0 | 0.09 | 6.16 | 0.00 | 85 | 1013.0 |
| 20260507231025 | 77 | 198 | 2.0 | 4.0 | 0.05 | 6.12 | 0.00 | 86 | 1013.0 |
| 20260507230525 | 77 | 157 | 2.0 | 4.0 | 0.05 | 6.12 | 0.00 | 86 | 1013.0 |
| 20260507230025 | 76 | 217 | 1.0 | 3.0 | 0.05 | 6.11 | 0.00 | 86 | 1012.9 |
| 20260507225525 | 76 | 180 | 1.0 | 3.0 | 0.02 | 6.08 | 0.00 | 86 | 1012.8 |
| 20260507225025 | 76 | 229 | 1.0 | 2.0 | 0.02 | 6.08 | 0.00 | 87 | 1012.7 |
| 20260507224525 | 76 | 178 | 1.0 | 2.0 | 0.02 | 6.08 | 0.00 | 87 | 1012.6 |
| 20260507224025 | 76 | 182 | 1.0 | 3.0 | 0.02 | 6.08 | 0.00 | 87 | 1012.5 |
| 20260507223025 | 76 | 61 | 0.0 | 1.0 | 0.02 | 6.08 | 0.00 | 87 | 1012.5 |
| 20260507222525 | 76 | 14 | 0.0 | 3.0 | 0.03 | 6.08 | 0.00 | 87 | 1012.5 |
| 20260507222025 | 76 | 169 | 1.0 | 2.0 | 0.04 | 6.08 | 0.00 | 87 | 1012.5 |
| 20260507221525 | 76 | 204 | 1.0 | 5.0 | 0.03 | 6.07 | 0.00 | 87 | 1012.5 |
| 20260507221024 | 76 | 236 | 1.0 | 5.0 | 0.04 | 6.07 | 0.00 | 87 | 1012.4 |
| 20260507220525 | 76 | 205 | 2.0 | 3.0 | 0.04 | 6.07 | 0.00 | 87 | 1012.4 |
| 20260507220024 | 76 | 229 | 1.0 | 2.0 | 0.03 | 6.05 | 0.00 | 87 | 1012.2 |
| 20260507215524 | 76 | 226 | 0.0 | 2.0 | 0.03 | 6.05 | 0.00 | 87 | 1012.2 |
| 20260507215025 | 76 | 153 | 1.0 | 2.0 | 0.04 | 6.05 | 0.00 | 87 | 1012.2 |
| 20260507214524 | 76 | 170 | 1.0 | 2.0 | 0.05 | 6.05 | 0.00 | 87 | 1012.2 |
| 20260507214025 | 76 | 164 | 1.0 | 3.0 | 0.05 | 6.05 | 0.00 | 87 | 1012.1 |
| 20260507213524 | 75 | 210 | 0.0 | 1.0 | 0.05 | 6.05 | 0.00 | 86 | 1012.0 |
| 20260507213025 | 76 | 42 | 0.0 | 1.0 | 0.05 | 6.05 | 0.00 | 86 | 1011.9 |
| 20260507212524 | 76 | 225 | 0.0 | 2.0 | 0.04 | 6.04 | 0.00 | 86 | 1011.9 |
| 20260507211524 | 76 | 303 | 0.0 | 2.0 | 0.05 | 6.03 | 0.00 | 86 | 1011.8 |
| 20260507211024 | 76 | 170 | 1.0 | 4.0 | 0.04 | 6.02 | 0.00 | 86 | 1011.7 |
| 20260507210525 | 76 | 205 | 1.0 | 3.0 | 0.05 | 6.02 | 0.00 | 86 | 1011.8 |
| 20260507210024 | 76 | 25 | 0.0 | 2.0 | 0.07 | 6.02 | 0.00 | 86 | 1011.8 |
| 20260507205524 | 76 | 141 | 0.0 | 1.0 | 0.07 | 6.02 | 0.00 | 86 | 1011.7 |
| 20260507205024 | 76 | 298 | 0.0 | 1.0 | 0.07 | 6.01 | 0.00 | 86 | 1011.6 |
| 20260507204524 | 76 | 9 | 0.0 | 1.0 | 0.07 | 5.99 | 0.00 | 86 | 1011.4 |
| 20260507204024 | 76 | 5 | 1.0 | 2.0 | 0.08 | 5.99 | 0.00 | 86 | 1011.4 |
| 20260507203524 | 76 | 107 | 1.0 | 3.0 | 0.08 | 5.99 | 0.00 | 85 | 1011.4 |
| 20260507203024 | 76 | 0 | 1.0 | 4.0 | 0.09 | 5.99 | 0.00 | 85 | 1011.4 |
| 20260507202524 | 76 | 22 | 0.0 | 4.0 | 0.14 | 5.99 | 0.00 | 85 | 1011.4 |
| 20260507202024 | 76 | 83 | 3.0 | 6.0 | 0.15 | 5.98 | 0.00 | 85 | 1011.3 |
| 20260507201523 | 76 | 328 | 1.0 | 4.0 | 0.16 | 5.97 | 0.00 | 85 | 1011.2 |
| 20260507201024 | 76 | 277 | 0.0 | 2.0 | 0.20 | 5.97 | 0.00 | 85 | 1011.2 |
| 20260507200524 | 76 | 56 | 0.0 | 4.0 | 0.22 | 5.96 | 0.00 | 86 | 1011.2 |
| 20260507200023 | 76 | 111 | 1.0 | 3.0 | 0.27 | 5.95 | 0.00 | 86 | 1011.2 |
| 20260507195524 | 76 | 309 | 0.0 | 2.0 | 0.28 | 5.95 | 0.00 | 85 | 1011.2 |
| 20260507195023 | 76 | 5 | 0.0 | 1.0 | 0.31 | 5.94 | 0.00 | 85 | 1011.2 |
| 20260507194524 | 76 | 26 | 0.0 | 1.0 | 0.34 | 5.92 | 0.00 | 85 | 1011.1 |
| 20260507194023 | 76 | 286 | 0.0 | 1.0 | 0.34 | 5.91 | 0.00 | 86 | 1011.2 |
| 20260507193523 | 76 | 326 | 0.0 | 3.0 | 0.35 | 5.91 | 0.00 | 85 | 1011.1 |
| 20260507193024 | 76 | 294 | 0.0 | 2.0 | 0.37 | 5.90 | 0.00 | 86 | 1011.1 |
| 20260507192523 | 76 | 225 | 1.0 | 4.0 | 0.35 | 5.85 | 0.00 | 86 | 1011.1 |
| 20260507192024 | 76 | 261 | 0.0 | 0.0 | 0.34 | 5.83 | 0.00 | 85 | 1011.2 |
| 20260507191523 | 76 | 229 | 0.0 | 2.0 | 0.35 | 5.81 | 0.00 | 85 | 1011.2 |
| 20260507191023 | 76 | 213 | 1.0 | 1.0 | 0.33 | 5.77 | 0.00 | 85 | 1011.2 |
| 20260507190523 | 76 | 183 | 1.0 | 2.0 | 0.33 | 5.74 | 0.00 | 85 | 1011.3 |
| 20260507190023 | 76 | 225 | 1.0 | 3.0 | 0.31 | 5.68 | 0.00 | 85 | 1011.3 |
| 20260507185523 | 76 | 203 | 2.0 | 4.0 | 0.31 | 5.66 | 0.00 | 85 | 1011.5 |
| 20260507185023 | 76 | 237 | 1.0 | 2.0 | 0.29 | 5.62 | 0.00 | 85 | 1011.4 |
| 20260507184523 | 76 | 33 | 0.0 | 1.0 | 0.28 | 5.58 | 0.00 | 85 | 1011.4 |
| 20260507184023 | 76 | 19 | 0.0 | 1.0 | 0.28 | 5.57 | 0.00 | 84 | 1011.5 |
| 20260507183523 | 76 | 46 | 0.0 | 1.0 | 0.29 | 5.56 | 0.00 | 84 | 1011.5 |
| 20260507183023 | 76 | 24 | 0.0 | 1.0 | 0.27 | 5.52 | 0.00 | 84 | 1011.6 |
| 20260507182523 | 76 | 268 | 0.0 | 1.0 | 0.28 | 5.50 | 0.00 | 85 | 1011.7 |
| 20260507182022 | 76 | 245 | 1.0 | 1.0 | 0.29 | 5.49 | 0.00 | 85 | 1011.8 |
| 20260507181523 | 76 | 225 | 1.0 | 2.0 | 0.28 | 5.46 | 0.00 | 85 | 1011.8 |
| 20260507181023 | 76 | 177 | 1.0 | 2.0 | 0.30 | 5.45 | 0.00 | 85 | 1011.8 |
| 20260507180523 | 76 | 166 | 1.0 | 2.0 | 0.28 | 5.42 | 0.00 | 85 | 1011.8 |
| 20260507180023 | 76 | 159 | 2.0 | 3.0 | 0.27 | 5.37 | 0.00 | 85 | 1011.9 |
| 20260507175522 | 76 | 219 | 2.0 | 4.0 | 0.27 | 5.36 | 0.00 | 84 | 1011.9 |
| 20260507175023 | 77 | 174 | 2.0 | 3.0 | 0.24 | 5.33 | 0.00 | 84 | 1012.0 |
| 20260507174522 | 77 | 243 | 1.0 | 4.0 | 0.23 | 5.31 | 0.00 | 84 | 1012.0 |
| 20260507174023 | 77 | 247 | 1.0 | 3.0 | 0.22 | 5.30 | 0.00 | 84 | 1012.0 |
| 20260507173523 | 77 | 215 | 1.0 | 1.0 | 0.22 | 5.27 | 0.00 | 84 | 1012.0 |
| 20260507173022 | 77 | 56 | 0.0 | 1.0 | 0.21 | 5.26 | 0.00 | 84 | 1012.1 |
| 20260507172523 | 77 | 62 | 1.0 | 2.0 | 0.22 | 5.23 | 0.00 | 84 | 1012.1 |
| 20260507172022 | 77 | 58 | 1.0 | 1.0 | 0.25 | 5.20 | 0.00 | 84 | 1012.1 |
| 20260507172004 | 77 | 54 | 0.0 | 1.0 | 0.24 | 5.18 | 0.00 | 84 | 1012.1 |
| 20260507171522 | 77 | 50 | 0.0 | 2.0 | 0.24 | 5.18 | 0.00 | 84 | 1012.1 |
| 20260507171454 | 77 | 37 | 0.0 | 2.0 | 0.28 | 5.18 | 0.00 | 84 | 1012.1 |
| 20260507171022 | 77 | 49 | 1.0 | 3.0 | 0.28 | 5.14 | 0.00 | 84 | 1012.1 |
| 20260507170943 | 77 | 27 | 1.0 | 3.0 | 0.28 | 5.14 | 0.00 | 84 | 1012.1 |
| 20260507170434 | 77 | 19 | 0.0 | 2.0 | 0.30 | 5.12 | 0.00 | 84 | 1012.2 |
| 20260507170022 | 77 | 65 | 1.0 | 4.0 | 0.29 | 5.10 | 0.00 | 84 | 1012.1 |
| 20260507165923 | 77 | 41 | 1.0 | 4.0 | 0.31 | 5.10 | 0.00 | 84 | 1012.1 |
| 20260507165522 | 77 | 42 | 0.0 | 3.0 | 0.34 | 5.09 | 0.00 | 84 | 1012.3 |
| 20260507165414 | 77 | 48 | 0.0 | 3.0 | 0.34 | 5.09 | 0.00 | 84 | 1012.2 |
| 20260507165022 | 77 | 46 | 1.0 | 2.0 | 0.36 | 5.09 | 0.00 | 83 | 1012.3 |
| 20260507164903 | 77 | 9 | 1.0 | 2.0 | 0.37 | 5.09 | 0.00 | 83 | 1012.2 |
| 20260507164522 | 77 | 69 | 1.0 | 2.0 | 0.36 | 5.07 | 0.00 | 83 | 1012.3 |
| 20260507164355 | 77 | 17 | 0.0 | 2.0 | 0.38 | 5.07 | 0.00 | 83 | 1012.2 |
| 20260507164022 | 77 | 29 | 1.0 | 4.0 | 0.40 | 5.07 | 0.00 | 83 | 1012.3 |
| 20260507163843 | 77 | 63 | 2.0 | 4.0 | 0.42 | 5.07 | 0.00 | 83 | 1012.3 |
| 20260507163522 | 77 | 43 | 2.0 | 4.0 | 0.40 | 5.05 | 0.00 | 83 | 1012.3 |
| 20260507163333 | 77 | 38 | 1.0 | 3.0 | 0.42 | 5.05 | 0.00 | 83 | 1012.4 |
| 20260507163022 | 77 | 22 | 2.0 | 3.0 | 0.43 | 5.05 | 0.00 | 83 | 1012.3 |
| 20260507162522 | 77 | 54 | 1.0 | 3.0 | 0.42 | 5.00 | 0.00 | 83 | 1012.5 |
| 20260507162313 | 77 | 53 | 2.0 | 3.0 | 0.41 | 4.98 | 0.00 | 83 | 1012.4 |
| 20260507162022 | 77 | 56 | 0.0 | 2.0 | 0.40 | 4.94 | 0.00 | 83 | 1012.5 |
| 20260507161521 | 77 | 46 | 1.0 | 3.0 | 0.40 | 4.93 | 0.00 | 83 | 1012.5 |
| 20260507161253 | 77 | 49 | 1.0 | 3.0 | 0.40 | 4.90 | 0.00 | 83 | 1012.5 |
| 20260507161022 | 77 | 46 | 1.0 | 2.0 | 0.37 | 4.86 | 0.00 | 83 | 1012.5 |
| 20260507160743 | 77 | 66 | 0.0 | 2.0 | 0.35 | 4.83 | 0.00 | 83 | 1012.5 |
| 20260507160522 | 77 | 25 | 0.0 | 4.0 | 0.36 | 4.83 | 0.00 | 83 | 1012.5 |
| 20260507160233 | 77 | 40 | 2.0 | 5.0 | 0.36 | 4.81 | 0.00 | 83 | 1012.5 |
| 20260507160022 | 77 | 17 | 2.0 | 5.0 | 0.37 | 4.80 | 0.00 | 83 | 1012.6 |
| 20260507155723 | 77 | 22 | 2.0 | 4.0 | 0.38 | 4.77 | 0.00 | 83 | 1012.5 |
| 20260507155522 | 77 | 88 | 0.0 | 6.0 | 0.36 | 4.74 | 0.00 | 83 | 1012.5 |
| 20260507155213 | 77 | 343 | 3.0 | 6.0 | 0.42 | 4.73 | 0.00 | 82 | 1012.5 |
| 20260507155022 | 77 | 56 | 0.0 | 5.0 | 0.41 | 4.72 | 0.00 | 82 | 1012.5 |
| 20260507154703 | 77 | 242 | 2.0 | 4.0 | 0.43 | 4.71 | 0.00 | 82 | 1012.5 |
| 20260507154521 | 77 | 322 | 0.0 | 3.0 | 0.43 | 4.71 | 0.00 | 82 | 1012.5 |
| 20260507154153 | 77 | 45 | 0.0 | 1.0 | 0.41 | 4.68 | 0.00 | 82 | 1012.5 |
| 20260507154022 | 77 | 26 | 0.0 | 6.0 | 0.40 | 4.67 | 0.00 | 82 | 1012.5 |
| 20260507153643 | 77 | 39 | 3.0 | 6.0 | 0.38 | 4.65 | 0.00 | 82 | 1012.5 |
| 20260507153521 | 77 | 3 | 3.0 | 5.0 | 0.40 | 4.65 | 0.00 | 82 | 1012.5 |
| 20260507153133 | 77 | 44 | 1.0 | 3.0 | 0.41 | 4.62 | 0.00 | 82 | 1012.6 |
| 20260507153023 | 77 | 65 | 1.0 | 3.0 | 0.40 | 4.61 | 0.00 | 82 | 1012.6 |
| 20260507152521 | 77 | 31 | 1.0 | 4.0 | 0.38 | 4.58 | 0.00 | 82 | 1012.6 |
| 20260507152113 | 77 | 284 | 1.0 | 4.0 | 0.38 | 4.54 | 0.00 | 82 | 1012.7 |
| 20260507152022 | 77 | 351 | 1.0 | 4.0 | 0.38 | 4.54 | 0.00 | 82 | 1012.7 |
| 20260507151602 | 77 | 30 | 2.0 | 4.0 | 0.42 | 4.53 | 0.00 | 82 | 1012.8 |
| 20260507151521 | 77 | 27 | 2.0 | 4.0 | 0.42 | 4.53 | 0.00 | 82 | 1012.8 |
| 20260507151053 | 77 | 43 | 1.0 | 4.0 | 0.38 | 4.48 | 0.00 | 82 | 1012.8 |
| 20260507151021 | 77 | 62 | 1.0 | 4.0 | 0.38 | 4.48 | 0.00 | 82 | 1012.8 |
| 20260507150542 | 77 | 59 | 1.0 | 3.0 | 0.43 | 4.46 | 0.00 | 82 | 1012.9 |
| 20260507150521 | 77 | 61 | 1.0 | 3.0 | 0.43 | 4.46 | 0.00 | 82 | 1012.9 |
| 20260507150033 | 77 | 337 | 0.0 | 2.0 | 0.49 | 4.42 | 0.00 | 82 | 1012.8 |
| 20260507150021 | 77 | 350 | 0.0 | 2.0 | 0.49 | 4.42 | 0.00 | 82 | 1012.8 |
| 20260507145523 | 77 | 27 | 0.0 | 4.0 | 0.47 | 4.38 | 0.00 | 82 | 1012.8 |
| 20260507145521 | 77 | 25 | 0.0 | 4.0 | 0.47 | 4.38 | 0.00 | 82 | 1012.8 |
| 20260507145022 | 77 | 294 | 0.0 | 3.0 | 0.47 | 4.31 | 0.00 | 82 | 1012.8 |
| 20260507145012 | 77 | 303 | 0.0 | 3.0 | 0.46 | 4.28 | 0.00 | 82 | 1012.8 |
| 20260507144521 | 77 | 65 | 1.0 | 4.0 | 0.49 | 4.27 | 0.00 | 83 | 1012.8 |
| 20260507144021 | 77 | 25 | 2.0 | 7.0 | 0.55 | 4.27 | 0.00 | 83 | 1012.8 |
| 20260507143521 | 77 | 56 | 5.0 | 8.0 | 0.56 | 4.25 | 0.00 | 83 | 1012.9 |
| 20260507143021 | 77 | 10 | 1.0 | 9.0 | 0.59 | 4.21 | 0.00 | 83 | 1012.7 |
| 20260507142522 | 77 | 331 | 2.0 | 6.0 | 0.60 | 4.19 | 0.00 | 83 | 1012.8 |
| 20260507142021 | 77 | 21 | 0.0 | 4.0 | 0.63 | 4.14 | 0.00 | 83 | 1012.7 |
| 20260507141521 | 77 | 52 | 1.0 | 10.0 | 0.62 | 4.11 | 0.00 | 82 | 1012.6 |
| 20260507141020 | 77 | 44 | 6.0 | 8.0 | 0.60 | 4.07 | 0.00 | 82 | 1012.6 |
| 20260507140521 | 77 | 298 | 1.0 | 4.0 | 0.56 | 4.00 | 0.00 | 83 | 1012.6 |
| 20260507140021 | 77 | 319 | 0.0 | 6.0 | 0.53 | 3.93 | 0.00 | 83 | 1012.6 |
| 20260507135521 | 77 | 357 | 2.0 | 9.0 | 0.55 | 3.89 | 0.00 | 82 | 1012.5 |
| 20260507135021 | 77 | 85 | 2.0 | 11.0 | 0.49 | 3.82 | 0.00 | 83 | 1012.5 |
| 20260507134520 | 77 | 75 | 4.0 | 12.0 | 0.46 | 3.75 | 0.00 | 83 | 1012.5 |
| 20260507134021 | 77 | 357 | 2.0 | 5.0 | 0.44 | 3.70 | 0.00 | 83 | 1012.3 |
| 20260507133520 | 77 | 350 | 1.0 | 6.0 | 0.47 | 3.68 | 0.00 | 83 | 1012.3 |
| 20260507133021 | 77 | 18 | 3.0 | 6.0 | 0.43 | 3.62 | 0.00 | 83 | 1012.2 |
| 20260507132520 | 77 | 146 | 2.0 | 5.0 | 0.46 | 3.59 | 0.00 | 83 | 1012.1 |
| 20260507131520 | 77 | 11 | 0.0 | 2.0 | 0.44 | 3.48 | 0.00 | 83 | 1012.1 |
| 20260507131202 | 77 | 307 | 0.0 | 2.0 | 0.44 | 3.47 | 0.00 | 83 | 1011.9 |
| 20260507131021 | 77 | 352 | 1.0 | 2.0 | 0.48 | 3.47 | 0.00 | 83 | 1012.0 |
| 20260507130651 | 77 | 276 | 0.0 | 4.0 | 0.49 | 3.44 | 0.00 | 83 | 1012.0 |
| 20260507130520 | 77 | 240 | 2.0 | 4.0 | 0.48 | 3.43 | 0.00 | 83 | 1012.0 |
| 20260507130142 | 77 | 230 | 1.0 | 7.0 | 0.44 | 3.40 | 0.00 | 83 | 1012.0 |
| 20260507130020 | 77 | 4 | 1.0 | 7.0 | 0.44 | 3.40 | 0.00 | 83 | 1012.0 |
| 20260507125631 | 77 | 66 | 1.0 | 4.0 | 0.43 | 3.36 | 0.00 | 83 | 1011.9 |
| 20260507125520 | 77 | 141 | 2.0 | 4.0 | 0.43 | 3.34 | 0.00 | 83 | 1011.9 |
| 20260507125122 | 77 | 288 | 1.0 | 3.0 | 0.46 | 3.33 | 0.00 | 83 | 1011.8 |
| 20260507125020 | 77 | 206 | 1.0 | 3.0 | 0.46 | 3.33 | 0.00 | 83 | 1011.8 |
| 20260507124611 | 77 | 321 | 1.0 | 4.0 | 0.47 | 3.30 | 0.00 | 83 | 1011.7 |
| 20260507124520 | 77 | 58 | 2.0 | 6.0 | 0.46 | 3.29 | 0.00 | 83 | 1011.7 |
| 20260507124102 | 77 | 29 | 3.0 | 10.0 | 0.47 | 3.28 | 0.00 | 82 | 1011.6 |
| 20260507124020 | 77 | 20 | 4.0 | 10.0 | 0.44 | 3.25 | 0.00 | 82 | 1011.6 |
| 20260507123552 | 77 | 16 | 1.0 | 4.0 | 0.43 | 3.21 | 0.00 | 82 | 1011.6 |
| 20260507123520 | 77 | 28 | 1.0 | 4.0 | 0.43 | 3.21 | 0.00 | 82 | 1011.5 |
| 20260507123041 | 77 | 283 | 0.0 | 5.0 | 0.43 | 3.20 | 0.00 | 82 | 1011.5 |
| 20260507123020 | 77 | 255 | 0.0 | 5.0 | 0.44 | 3.20 | 0.00 | 82 | 1011.6 |
| 20260507122520 | 77 | 227 | 2.0 | 6.0 | 0.43 | 3.14 | 0.00 | 82 | 1011.4 |
| 20260507122022 | 77 | 334 | 1.0 | 6.0 | 0.41 | 3.10 | 0.00 | 82 | 1011.3 |
| 20260507122020 | 77 | 336 | 1.0 | 6.0 | 0.41 | 3.10 | 0.00 | 82 | 1011.3 |
| 20260507121521 | 77 | 249 | 2.0 | 8.0 | 0.38 | 3.04 | 0.00 | 82 | 1011.4 |
| 20260507121511 | 77 | 196 | 2.0 | 8.0 | 0.38 | 3.04 | 0.00 | 82 | 1011.3 |
| 20260507121020 | 77 | 262 | 1.0 | 9.0 | 0.36 | 2.99 | 0.00 | 82 | 1011.4 |
| 20260507121001 | 77 | 267 | 1.0 | 9.0 | 0.36 | 2.99 | 0.00 | 82 | 1011.4 |
| 20260507120520 | 77 | 277 | 3.0 | 8.0 | 0.37 | 2.96 | 0.00 | 82 | 1011.3 |
| 20260507120452 | 77 | 153 | 4.0 | 8.0 | 0.37 | 2.96 | 0.00 | 82 | 1011.3 |
| 20260507120020 | 77 | 235 | 4.0 | 6.0 | 0.38 | 2.96 | 0.00 | 81 | 1011.2 |
| 20260507115941 | 77 | 215 | 2.0 | 5.0 | 0.38 | 2.96 | 0.00 | 81 | 1011.2 |
| 20260507115520 | 77 | 289 | 1.0 | 7.0 | 0.36 | 2.91 | 0.00 | 81 | 1011.2 |
| 20260507115431 | 77 | 259 | 1.0 | 7.0 | 0.37 | 2.91 | 0.00 | 81 | 1011.2 |
| 20260507115020 | 77 | 224 | 3.0 | 8.0 | 0.36 | 2.88 | 0.00 | 81 | 1011.1 |
| 20260507114921 | 77 | 249 | 3.0 | 8.0 | 0.37 | 2.88 | 0.00 | 81 | 1011.1 |
| 20260507114520 | 77 | 238 | 3.0 | 6.0 | 0.35 | 2.84 | 0.00 | 81 | 1011.0 |
| 20260507114411 | 78 | 279 | 1.0 | 6.0 | 0.35 | 2.84 | 0.00 | 81 | 1011.0 |
| 20260507114019 | 78 | 232 | 2.0 | 7.0 | 0.34 | 2.82 | 0.00 | 81 | 1010.9 |
| 20260507113901 | 78 | 297 | 2.0 | 7.0 | 0.30 | 2.78 | 0.00 | 81 | 1010.9 |
| 20260507113520 | 78 | 295 | 1.0 | 3.0 | 0.33 | 2.78 | 0.00 | 81 | 1011.0 |
| 20260507113351 | 77 | 272 | 2.0 | 3.0 | 0.33 | 2.78 | 0.00 | 81 | 1011.0 |
| 20260507113019 | 77 | 324 | 0.0 | 8.0 | 0.31 | 2.75 | 0.00 | 81 | 1011.0 |
| 20260507112841 | 78 | 29 | 2.0 | 8.0 | 0.30 | 2.72 | 0.00 | 81 | 1011.0 |
| 20260507112520 | 78 | 215 | 5.0 | 7.0 | 0.28 | 2.70 | 0.00 | 81 | 1010.9 |
| 20260507112330 | 78 | 307 | 1.0 | 7.0 | 0.28 | 2.69 | 0.00 | 81 | 1010.9 |
| 20260507112019 | 78 | 346 | 2.0 | 7.0 | 0.28 | 2.69 | 0.00 | 81 | 1010.8 |
| 20260507111821 | 78 | 147 | 0.0 | 10.0 | 0.27 | 2.66 | 0.00 | 80 | 1010.8 |
| 20260507111520 | 78 | 248 | 4.0 | 10.0 | 0.25 | 2.65 | 0.00 | 80 | 1010.8 |
| 20260507111310 | 78 | 206 | 5.0 | 8.0 | 0.24 | 2.64 | 0.00 | 80 | 1010.9 |
| 20260507111019 | 78 | 247 | 4.0 | 7.0 | 0.23 | 2.63 | 0.00 | 80 | 1010.9 |
| 20260507110824 | 78 | 282 | 2.0 | 8.0 | 0.21 | 2.61 | 0.00 | 80 | 1010.9 |
| 20260507110520 | 78 | 238 | 3.0 | 8.0 | 0.18 | 2.58 | 0.00 | 80 | 1010.8 |
| 20260507110250 | 78 | 34 | 2.0 | 5.0 | 0.18 | 2.58 | 0.00 | 80 | 1010.9 |
| 20260507110019 | 78 | 187 | 1.0 | 3.0 | 0.17 | 2.57 | 0.00 | 80 | 1010.9 |
| 20260507105741 | 78 | 219 | 1.0 | 7.0 | 0.16 | 2.56 | 0.00 | 80 | 1010.8 |
| 20260507105519 | 78 | 276 | 3.0 | 7.0 | 0.15 | 2.55 | 0.00 | 80 | 1010.8 |
| 20260507105239 | 78 | 285 | 0.0 | 9.0 | 0.12 | 2.52 | 0.00 | 80 | 1010.8 |
| 20260507105020 | 78 | 336 | 3.0 | 11.0 | 0.11 | 2.51 | 0.00 | 80 | 1010.8 |
| 20260507104720 | 78 | 42 | 1.0 | 12.0 | 0.12 | 2.50 | 0.00 | 80 | 1010.8 |
| 20260507104519 | 78 | 59 | 5.0 | 12.0 | 0.11 | 2.49 | 0.00 | 80 | 1010.8 |
| 20260507104222 | 78 | 267 | 0.0 | 5.0 | 0.10 | 2.48 | 0.00 | 80 | 1010.7 |
| 20260507104020 | 78 | 132 | 1.0 | 5.0 | 0.10 | 2.48 | 0.00 | 80 | 1010.7 |
| 20260507103701 | 79 | 186 | 2.0 | 5.0 | 0.09 | 2.46 | 0.00 | 80 | 1010.7 |
| 20260507103519 | 79 | 19 | 0.0 | 6.0 | 0.08 | 2.45 | 0.00 | 80 | 1010.6 |
| 20260507103151 | 79 | 53 | 0.0 | 5.0 | 0.08 | 2.44 | 0.00 | 80 | 1010.6 |
| 20260507103020 | 79 | 23 | 0.0 | 5.0 | 0.07 | 2.43 | 0.00 | 79 | 1010.6 |
| 20260507102641 | 79 | 332 | 2.0 | 11.0 | 0.05 | 2.42 | 0.00 | 79 | 1010.5 |
| 20260507102519 | 79 | 355 | 6.0 | 12.0 | 0.05 | 2.42 | 0.00 | 79 | 1010.5 |
| 20260507102131 | 80 | 215 | 8.0 | 12.0 | 0.05 | 2.40 | 0.00 | 77 | 1010.4 |
| 20260507102019 | 80 | 185 | 5.0 | 12.0 | 0.05 | 2.40 | 0.00 | 77 | 1010.4 |
| 20260507101627 | 81 | 223 | 6.0 | 12.0 | 0.07 | 2.39 | 0.00 | 76 | 1010.4 |
| 20260507101519 | 81 | 243 | 6.0 | 10.0 | 0.07 | 2.39 | 0.00 | 76 | 1010.3 |
| 20260507101111 | 81 | 253 | 3.0 | 9.0 | 0.10 | 2.39 | 0.00 | 76 | 1010.4 |
| 20260507101019 | 81 | 266 | 0.0 | 9.0 | 0.11 | 2.39 | 0.00 | 76 | 1010.4 |
| 20260507100602 | 82 | 230 | 0.0 | 6.0 | 0.11 | 2.39 | 0.00 | 76 | 1010.4 |
| 20260507100519 | 82 | 272 | 2.0 | 6.0 | 0.11 | 2.39 | 0.00 | 76 | 1010.4 |
| 20260507100050 | 81 | 240 | 2.0 | 9.0 | 0.12 | 2.39 | 0.00 | 76 | 1010.4 |
| 20260507100019 | 81 | 279 | 3.0 | 9.0 | 0.12 | 2.39 | 0.00 | 76 | 1010.4 |
| 20260507095541 | 81 | 246 | 4.0 | 13.0 | 0.12 | 2.39 | 0.00 | 75 | 1010.3 |
| 20260507095030 | 82 | 222 | 6.0 | 9.0 | 0.14 | 2.39 | 0.00 | 75 | 1010.2 |
| 20260507095019 | 82 | 213 | 6.0 | 9.0 | 0.14 | 2.39 | 0.00 | 75 | 1010.2 |
| 20260507094522 | 81 | 317 | 6.0 | 14.0 | 0.12 | 2.37 | 0.00 | 75 | 1010.2 |
| 20260507094519 | 81 | 325 | 6.0 | 14.0 | 0.12 | 2.37 | 0.00 | 75 | 1010.2 |
| 20260507094019 | 83 | 257 | 6.0 | 11.0 | 0.14 | 2.37 | 0.00 | 74 | 1010.3 |
| 20260507094010 | 83 | 258 | 5.0 | 11.0 | 0.14 | 2.37 | 0.00 | 74 | 1010.3 |
| 20260507093519 | 83 | 220 | 4.0 | 13.0 | 0.15 | 2.37 | 0.00 | 74 | 1010.2 |
| 20260507093500 | 83 | 189 | 4.0 | 13.0 | 0.15 | 2.37 | 0.00 | 74 | 1010.2 |
| 20260507093018 | 83 | 254 | 4.0 | 10.0 | 0.17 | 2.36 | 0.00 | 74 | 1010.2 |
| 20260507092950 | 83 | 249 | 3.0 | 10.0 | 0.17 | 2.36 | 0.00 | 74 | 1010.2 |
| 20260507092519 | 83 | 230 | 3.0 | 10.0 | 0.20 | 2.37 | 0.00 | 74 | 1010.3 |
| 20260507092440 | 83 | 68 | 3.0 | 10.0 | 0.20 | 2.37 | 0.00 | 74 | 1010.3 |
| 20260507092018 | 83 | 252 | 7.0 | 10.0 | 0.22 | 2.36 | 0.00 | 72 | 1010.2 |
| 20260507091930 | 84 | 237 | 7.0 | 10.0 | 0.22 | 2.36 | 0.00 | 72 | 1010.2 |
| 20260507091420 | 84 | 253 | 2.0 | 11.0 | 0.22 | 2.33 | 0.00 | 74 | 1010.2 |
| 20260507091018 | 83 | 236 | 6.0 | 10.0 | 0.21 | 2.29 | 0.00 | 73 | 1010.2 |
| 20260507090910 | 83 | 227 | 5.0 | 8.0 | 0.21 | 2.29 | 0.00 | 74 | 1010.3 |
| 20260507090519 | 82 | 279 | 3.0 | 13.0 | 0.25 | 2.30 | 0.00 | 75 | 1010.2 |
| 20260507090400 | 82 | 181 | 7.0 | 15.0 | 0.27 | 2.30 | 0.00 | 74 | 1010.3 |
| 20260507090019 | 82 | 225 | 6.0 | 15.0 | 0.27 | 2.29 | 0.00 | 73 | 1010.3 |
| 20260507085850 | 83 | 227 | 6.0 | 13.0 | 0.28 | 2.29 | 0.00 | 73 | 1010.2 |
| 20260507085518 | 82 | 191 | 5.0 | 12.0 | 0.31 | 2.29 | 0.00 | 74 | 1010.2 |
| 20260507085339 | 82 | 297 | 6.0 | 12.0 | 0.33 | 2.27 | 0.00 | 74 | 1010.1 |
| 20260507085018 | 84 | 209 | 8.0 | 12.0 | 0.34 | 2.27 | 0.00 | 72 | 1010.1 |
| 20260507084830 | 84 | 340 | 2.0 | 11.0 | 0.36 | 2.27 | 0.00 | 72 | 1010.2 |
| 20260507084519 | 84 | 236 | 4.0 | 11.0 | 0.37 | 2.26 | 0.00 | 71 | 1010.2 |
| 20260507084319 | 85 | 42 | 5.0 | 11.0 | 0.38 | 2.26 | 0.00 | 72 | 1010.2 |
| 20260507084018 | 84 | 316 | 2.0 | 14.0 | 0.38 | 2.25 | 0.00 | 73 | 1010.1 |
| 20260507083810 | 84 | 39 | 5.0 | 14.0 | 0.38 | 2.24 | 0.00 | 72 | 1010.2 |
| 20260507083519 | 84 | 112 | 2.0 | 8.0 | 0.41 | 2.24 | 0.00 | 72 | 1010.2 |
| 20260507083300 | 84 | 360 | 1.0 | 7.0 | 0.40 | 2.24 | 0.00 | 73 | 1010.2 |
| 20260507083019 | 83 | 252 | 3.0 | 9.0 | 0.38 | 2.23 | 0.00 | 73 | 1010.2 |
| 20260507082749 | 83 | 358 | 3.0 | 9.0 | 0.42 | 2.24 | 0.00 | 72 | 1010.2 |
| 20260507082518 | 84 | 34 | 3.0 | 8.0 | 0.42 | 2.22 | 0.00 | 72 | 1010.2 |
| 20260507082240 | 84 | 237 | 2.0 | 10.0 | 0.43 | 2.22 | 0.00 | 72 | 1010.2 |
| 20260507082019 | 84 | 246 | 4.0 | 10.0 | 0.44 | 2.19 | 0.00 | 72 | 1010.2 |
| 20260507081729 | 84 | 262 | 3.0 | 10.0 | 0.47 | 2.18 | 0.00 | 73 | 1010.2 |
| 20260507081518 | 83 | 54 | 2.0 | 10.0 | 0.50 | 2.17 | 0.00 | 73 | 1010.3 |
| 20260507081219 | 83 | 192 | 1.0 | 9.0 | 0.49 | 2.14 | 0.00 | 74 | 1010.3 |
| 20260507081018 | 82 | 155 | 4.0 | 11.0 | 0.49 | 2.13 | 0.00 | 74 | 1010.3 |
| 20260507080709 | 82 | 52 | 6.0 | 13.0 | 0.47 | 2.12 | 0.00 | 74 | 1010.4 |
| 20260507080518 | 82 | 22 | 3.0 | 13.0 | 0.48 | 2.11 | 0.00 | 74 | 1010.4 |
| 20260507080018 | 83 | 37 | 7.0 | 13.0 | 0.50 | 2.10 | 0.00 | 74 | 1010.5 |
| 20260507075650 | 83 | 37 | 8.0 | 12.0 | 0.53 | 2.06 | 0.00 | 72 | 1010.6 |
| 20260507075518 | 84 | 25 | 8.0 | 12.0 | 0.56 | 2.06 | 0.00 | 72 | 1010.7 |
| 20260507075139 | 84 | 237 | 2.0 | 8.0 | 0.56 | 2.05 | 0.00 | 73 | 1010.6 |
| 20260507075018 | 84 | 66 | 2.0 | 8.0 | 0.55 | 2.04 | 0.00 | 73 | 1010.6 |
| 20260507074630 | 84 | 168 | 4.0 | 12.0 | 0.55 | 2.00 | 0.00 | 72 | 1010.8 |
| 20260507074518 | 84 | 248 | 6.0 | 12.0 | 0.54 | 1.99 | 0.00 | 72 | 1010.7 |
| 20260507074119 | 84 | 17 | 6.0 | 13.0 | 0.53 | 1.97 | 0.00 | 71 | 1010.7 |
| 20260507074018 | 85 | 37 | 6.0 | 13.0 | 0.54 | 1.98 | 0.00 | 70 | 1010.8 |
| 20260507073609 | 86 | 222 | 2.0 | 6.0 | 0.53 | 1.96 | 0.00 | 71 | 1010.8 |
| 20260507073518 | 85 | 277 | 2.0 | 6.0 | 0.51 | 1.94 | 0.00 | 71 | 1010.8 |
| 20260507073017 | 85 | 24 | 3.0 | 10.0 | 0.55 | 1.93 | 0.00 | 71 | 1010.7 |
| 20260507072549 | 85 | 336 | 5.0 | 11.0 | 0.53 | 1.87 | 0.00 | 70 | 1010.8 |
| 20260507072518 | 85 | 248 | 6.0 | 11.0 | 0.53 | 1.87 | 0.00 | 70 | 1010.9 |
| 20260507072040 | 85 | 186 | 6.0 | 11.0 | 0.53 | 1.81 | 0.00 | 71 | 1010.9 |
| 20260507072017 | 85 | 13 | 5.0 | 11.0 | 0.53 | 1.81 | 0.00 | 71 | 1010.9 |
| 20260507071529 | 84 | 340 | 2.0 | 13.0 | 0.48 | 1.74 | 0.00 | 72 | 1011.0 |
| 20260507071518 | 84 | 307 | 2.0 | 13.0 | 0.48 | 1.74 | 0.00 | 72 | 1011.0 |
| 20260507071020 | 83 | 266 | 5.0 | 17.0 | 0.50 | 1.72 | 0.00 | 75 | 1011.0 |
| 20260507071018 | 83 | 270 | 5.0 | 17.0 | 0.50 | 1.72 | 0.00 | 75 | 1011.0 |
| 20260507070517 | 82 | 277 | 6.0 | 15.0 | 0.50 | 1.68 | 0.00 | 76 | 1011.0 |
| 20260507070509 | 82 | 298 | 6.0 | 15.0 | 0.50 | 1.68 | 0.00 | 76 | 1011.1 |
| 20260507070018 | 82 | 192 | 12.0 | 20.0 | 0.51 | 1.64 | 0.00 | 73 | 1011.1 |
| 20260507065959 | 82 | 208 | 13.0 | 20.0 | 0.51 | 1.64 | 0.00 | 73 | 1011.1 |
| 20260507065517 | 83 | 275 | 6.0 | 14.0 | 0.43 | 1.53 | 0.00 | 73 | 1011.2 |
| 20260507065448 | 83 | 257 | 6.0 | 14.0 | 0.43 | 1.53 | 0.00 | 73 | 1011.2 |
| 20260507065017 | 83 | 262 | 4.0 | 18.0 | 0.46 | 1.51 | 0.00 | 73 | 1011.2 |
| 20260507064939 | 83 | 231 | 3.0 | 18.0 | 0.44 | 1.48 | 0.00 | 73 | 1011.2 |
| 20260507064517 | 85 | 238 | 6.0 | 12.0 | 0.47 | 1.47 | 0.00 | 71 | 1011.2 |
| 20260507064429 | 85 | 249 | 7.0 | 12.0 | 0.46 | 1.46 | 0.00 | 71 | 1011.3 |
| 20260507064017 | 84 | 275 | 5.0 | 14.0 | 0.46 | 1.47 | 0.00 | 72 | 1011.2 |
| 20260507063918 | 84 | 267 | 8.0 | 14.0 | 0.44 | 1.46 | 0.00 | 71 | 1011.2 |
| 20260507063517 | 85 | 298 | 7.0 | 13.0 | 0.47 | 1.46 | 0.00 | 71 | 1011.4 |
| 20260507063409 | 85 | 270 | 6.0 | 13.0 | 0.46 | 1.45 | 0.00 | 72 | 1011.3 |
| 20260507063018 | 84 | 256 | 6.0 | 12.0 | 0.46 | 1.41 | 0.00 | 73 | 1011.3 |
| 20260507062859 | 83 | 250 | 6.0 | 11.0 | 0.43 | 1.38 | 0.00 | 72 | 1011.4 |
| 20260507062517 | 84 | 231 | 6.0 | 16.0 | 0.44 | 1.38 | 0.00 | 73 | 1011.4 |
| 20260507062349 | 83 | 252 | 5.0 | 18.0 | 0.44 | 1.35 | 0.00 | 74 | 1011.4 |
| 20260507062017 | 82 | 251 | 11.0 | 18.0 | 0.43 | 1.32 | 0.00 | 73 | 1011.5 |
| 20260507061839 | 83 | 212 | 9.0 | 18.0 | 0.43 | 1.32 | 0.00 | 73 | 1011.5 |
| 20260507061517 | 83 | 272 | 6.0 | 16.0 | 0.40 | 1.28 | 0.00 | 73 | 1011.6 |
| 20260507061328 | 83 | 201 | 8.0 | 16.0 | 0.38 | 1.27 | 0.00 | 72 | 1011.6 |
| 20260507061017 | 82 | 191 | 4.0 | 15.0 | 0.35 | 1.24 | 0.00 | 75 | 1011.7 |
| 20260507060819 | 82 | 247 | 6.0 | 15.0 | 0.36 | 1.24 | 0.00 | 74 | 1011.7 |
| 20260507060517 | 82 | 255 | 6.0 | 14.0 | 0.35 | 1.20 | 0.00 | 75 | 1011.7 |
| 20260507060308 | 82 | 21 | 9.0 | 15.0 | 0.34 | 1.16 | 0.00 | 74 | 1011.7 |
| 20260507060017 | 82 | 139 | 6.0 | 15.0 | 0.33 | 1.14 | 0.00 | 74 | 1011.7 |
| 20260507055759 | 82 | 257 | 6.0 | 14.0 | 0.31 | 1.13 | 0.00 | 74 | 1011.7 |
| 20260507055518 | 82 | 240 | 9.0 | 14.0 | 0.31 | 1.12 | 0.00 | 74 | 1011.8 |
| 20260507055248 | 82 | 240 | 5.0 | 12.0 | 0.30 | 1.09 | 0.00 | 74 | 1011.8 |
| 20260507055017 | 82 | 150 | 8.0 | 14.0 | 0.28 | 1.08 | 0.00 | 74 | 1011.8 |